sat.trackr.live / text

‹ back to catalog

ONEWEB-0366

NORAD 49292 · 2021-090P

PAYLOAD ACTIVE UNKNOWN

§ Identity

Operator
Country
UK
Launch date
2021-10-14
Launch site
VOSTO
Launch vehicle
Mass (kg)
RCS (m²)

Purposes: comms

External: N2YO · Heavens-Above · Gunter

§ Orbital elements

Epoch: 2026-09-09T00:20:11.482656Z

Period
109.55 min
Inclination
87.8900°
Eccentricity
0.0001889
Mean motion
13.14502983 rev/d
Perigee alt
1,204.4 km
Apogee alt
1,207.2 km
Semi-major
7,583.9 km
B*
-3.2008e-4
RAAN
272.9922°
Arg perigee
92.9412°
Mean anomaly
267.1934°
Rev number
23,857

§ Raw data

ONEWEB-03661 49292U 21090P   26252.01402179 -.00000106  00000+0 -32008-3 0  99932 49292  87.8900 272.9922 0001889  92.9412 267.1934 13.14502983238579

JSON: /api/v1/satellites/49292 · /tle

For live sub-satellite position, see the globe view (requires WebGL).

§ Visibility from observer

Set your observer location to see the next 7 days of passes ≥ 10°. The values pass through the URL so the page stays shareable.

No JS? Fill the form by hand. The geolocation button needs JavaScript.